Погода в Байкалове

Россия / Тюменская область     57°46′32″N   67°38′24″E
В апреле 2022 года жителям России запретили посещать сайт meteo.paraplan.net по решению Генеральной прокуратуры. Аудитория сайта уменьшилась в 10 раз. Владельцы сайта не видят смысла в поддержке погодного сервера в таких условиях. Сайт будет закрыт в октябре.
темп.,
°C
ветер,
м/с
пор.,
м/с
влажн.,
%
обл.,
%
осадки,
мм/ч
давл.,
гПа
погр.,
м
3 октября, пн
пн323:00+5ю51256100 0.0 1031505
02:00+4ю51354100 0.0 1030481
05:00+4ю51351100 0.0 1030466
08:00+5ю51450100 0.0 1029483
11:00+8ююз6134382 0.0 1029616
14:00+12ююз6123998 0.0 1028798
17:00+10ююз61346100 0.0 1027696
20:00+8ююз61548100 0.0 1028608
4 октября, вт
вт423:00+9ююз6154799 0.0 1027588
02:00+8юз61448100 0.0 1027546
05:00+7юз51272100 0.2 1027450
08:00+8юз51175100 0.0 1028421
11:00+11зюз4863100 0.8 1028478
14:00+15з475153 0.0 1028749
17:00+15зюз375593 0.0 1028147
20:00+10з3770100 0.0 1030123
5 октября, ср
ср523:00+9з3577100 0.0 103175
02:00+8зюз35825 0.0 103180
05:00+7зюз36845 0.0 103199
08:00+8зюз377899 0.0 1031162
11:00+13зюз47585 0.0 1031445
14:00+16юз4636100 0.0 1030815
17:00+12юз3742100 0.0 1029213
20:00+9юз3748100 0.0 1029164
6 октября, чт
чт623:00+8зюз3758100 0.0 1029143
02:00+8з2465100 0.0 102891
05:00+7юз2273100 0.0 102821
08:00+8ююз2370100 0.0 102774
11:00+10ююз2460100 0.0 1027193
14:00+13ююз3442100 0.0 1026623
17:00+11ююв2449100 0.0 102484
20:00+9ю3856100 0.0 1024186
7 октября, пт
пт723:00+8ююв3754100 0.0 1022145
02:00+7ююв3752100 0.0 1020150
05:00+7ююв3947100 0.0 1018210
08:00+8ююв41144100 0.0 1015293
11:00+12ююз4931100 0.0 1014475
14:00+13ю4832100 0.0 1011614
17:00+12ю41037100 0.0 1010562
20:00+11ююз51149100 0.0 1008690